BANAK/LAKSELV_(AFB) current weather conditions

sailwx.info

Wind from 170 at 19 knots

Air temperature 2.0° C
Visibility: greater than 5.4 NM
Dewpoint -3.0° C

Last reported at 2019-Dec-13 01:50 UTC.
Time now 2019-Dec-13 03:47 UTC

Location: N 70°04' E 024°59'.
View on Google Maps.

See reports from other nearby stations

  
Tides and Currents Weather Stations Pressure Air Temp Water Temp Dewpoint Dewpoint Depression Visibility Wind Speed Wind Dir Waves Ship Positions
date/time (UTC)wind fromknots sea level pressurealtimeterstation pressurevisibilityair tempwater tempwave heightnotes
2019-Dec-13 01:50 170 19 5.4 2.0
2019-Dec-13 01:20 160 19 5.4 2.0
2019-Dec-13 00:50 170 20 5.4 2.0
2019-Dec-13 00:20 170 20 5.4 2.0
2019-Dec-12 23:50 170 17 5.4 2.0
2019-Dec-12 23:20 170 19 5.4 2.0
2019-Dec-12 22:50 180 21 5.4 2.0
2019-Dec-12 22:20 180 20 5.4 1.0
2019-Dec-12 21:50 180 20 5.4 1.0
2019-Dec-12 21:20 160 14 5.4 1.0
2019-Dec-12 20:50 170 19 5.4 1.0
2019-Dec-12 20:20 170 17 5.4 1.0
2019-Dec-12 19:50 170 12 5.4 1.0
2019-Dec-12 19:20 160 7 5.4 1.0
2019-Dec-12 18:50 170 14 5.4 1.0
2019-Dec-12 18:20 170 15 5.4-0.0
2019-Dec-12 17:50 170 13 5.4-0.0
2019-Dec-12 17:20 180 14 5.4-0.0 Light low drifting snow.
2019-Dec-12 16:50 160 20 5.4-0.0 Light low drifting snow.
2019-Dec-12 16:20 150 17 gusting 28 5.4-0.0 Light low drifting snow.
2019-Dec-12 15:50 160 20 5.4-0.0 Light low drifting snow.
2019-Dec-12 15:20 170 21 5.4-0.0 Light low drifting snow.
2019-Dec-12 14:50 170 22 5.4-0.0 Light low drifting snow.
2019-Dec-12 14:20 160 20 5.4-1.0 Light low drifting snow.
2019-Dec-12 13:50 170 24 5.4-1.0 Light low drifting snow.
2019-Dec-12 13:20 170 22 5.4-1.0 Light low drifting snow.
2019-Dec-12 12:50 170 24 5.4-1.0 Light low drifting snow.
2019-Dec-12 12:20 170 28 5.4-1.0
2019-Dec-12 11:50 170 20 5.4-1.0
2019-Dec-12 11:20 170 17 5.4-1.0
2019-Dec-12 10:50 160 13 5.4-1.0
2019-Dec-12 10:20 180 14 5.4-2.0
2019-Dec-12 09:50 170 21 5.4-2.0
2019-Dec-12 09:20 170 18 5.4-3.0
2019-Dec-12 08:50 180 9 5.4-3.0
2019-Dec-12 08:20 200 8 5.4-3.0
2019-Dec-12 07:50 190 11 5.4-3.0
2019-Dec-12 07:20 180 6 5.4-4.0
2019-Dec-12 06:50 180 8 5.4-3.0
2019-Dec-12 06:20 190 11 5.4-3.0
2019-Dec-12 05:50 180 9 5.4-3.0
2019-Dec-12 05:20 180 12 5.4-3.0
2019-Dec-12 04:50 190 13 5.4-2.0
2019-Dec-12 04:20 200 13 5.4-3.0
2019-Dec-12 03:50 190 12 5.4-3.0
2019-Dec-12 03:20 190 9 5.4-2.0
2019-Dec-12 02:50 200 11 5.4-2.0
2019-Dec-12 02:20 200 12 5.4-2.0
2019-Dec-12 01:50 200 12 5.4-1.0
2019-Dec-12 01:20 210 9 5.4-0.0
2019-Dec-12 00:50 210 8 5.4-1.0
2019-Dec-12 00:20 170 15 5.4-1.0
2019-Dec-11 23:50 150 13 5.4-1.0
2019-Dec-11 23:20 170 15 5.4-0.0
2019-Dec-11 22:50 170 15 5.4-1.0
2019-Dec-11 22:20 170 19 5.4-1.0
2019-Dec-11 21:50 170 15 5.4-1.0
2019-Dec-11 21:20 170 17 5.4-1.0 Light snow.
2019-Dec-11 20:50 170 15 5.4-1.0 Light snow.
2019-Dec-11 20:20 170 18 5.4-2.0 Light snow.
2019-Dec-11 19:50 180 20 4.3-3.0 Light snow.
2019-Dec-11 19:20 180 21 3.8-3.0 Light snow. Light low drifting snow.
2019-Dec-11 18:50 180 19 2.7-3.0 Light snow. Light low drifting snow.
2019-Dec-11 18:20 160 15 3.2-4.0 Light snow. Light low drifting snow.
2019-Dec-11 17:50 170 15 1.8-4.0 Light snow. Light low drifting snow.
2019-Dec-11 17:20 170 20 1.1-4.0 Light snow. Blowing snow.
2019-Dec-11 16:50 180 18 1.3-5.0 Light snow. Blowing snow.
2019-Dec-11 16:20 180 17 0.9-5.0 Light snow. Blowing snow.
2019-Dec-11 15:50 180 17 0.8-5.0 Light snow. Blowing snow.
2019-Dec-11 15:20 180 19 1.0-6.0 Light snow. Blowing snow.
2019-Dec-11 14:50 170 22 0.6-6.0 Light snow. Blowing snow.
2019-Dec-11 14:20 180 21 0.9-7.0 Light snow. Blowing snow.
2019-Dec-11 13:50 170 21 0.9-7.0 Light snow. Blowing snow.
2019-Dec-11 13:20 180 20 1.3-7.0 Light snow. Blowing snow.
2019-Dec-11 12:50 170 22 1.1-7.0 Light snow. Blowing snow.
2019-Dec-11 12:20 180 24 1.1-7.0 Light snow. Blowing snow.
2019-Dec-11 11:50 180 20 1.3-7.0 Light snow. Blowing snow.
2019-Dec-11 11:20 180 20 1.1-8.0 Light snow. Blowing snow.
2019-Dec-11 10:50 180 22 1.1-8.0 Light snow. Blowing snow.
2019-Dec-11 10:20 180 24 1.1-8.0 Light snow showers.
2019-Dec-11 09:50 180 20 5.4-9.0 Light snow.
2019-Dec-11 09:20 180 19 2.6-10.0 Light snow.
2019-Dec-11 08:50 180 19 3.8-11.0 Light snow showers.
2019-Dec-11 08:20 190 21 3.8-11.0 Light snow showers.
2019-Dec-11 07:50 180 19 3.2-12.0 Light snow showers.
2019-Dec-11 07:20 170 12 5.4-12.0
2019-Dec-11 06:50 170 12 5.4-14.0
2019-Dec-11 06:20 180 18 5.4-14.0
2019-Dec-11 05:50 180 14 5.4-13.0
2019-Dec-11 05:20 180 20 5.4-14.0
2019-Dec-11 04:50 180 20 5.4-14.0
2019-Dec-11 04:20 190 15 5.4-14.0
2019-Dec-11 03:50 190 12 5.4-15.0
2019-Dec-11 03:20 200 18 5.4-14.0